| time (UTC) | temp C | wind direction | speed KPH | gust KPH | rain 1hr cm | rain 24hr cm | rain mn cm | humidity % | barometer mb |
| 20260507210903 | 11 | 89 | 3.2 | 6.4 | 0.00 | 0.00 | 0.00 | 84 | 1014.3 |
| 20260507210003 | 11 | 97 | 3.2 | 6.4 | 0.00 | 0.00 | 0.00 | 85 | 1014.4 |
| 20260507205403 | 11 | 109 | 1.6 | 6.4 | 0.00 | 0.00 | 0.00 | 85 | 1014.3 |
| 20260507204503 | 12 | 134 | 3.2 | 6.4 | 0.00 | 0.00 | 0.00 | 85 | 1014.3 |
| 20260507203603 | 12 | 146 | 4.8 | 11.3 | 0.00 | 0.00 | 0.00 | 86 | 1014.2 |
| 20260507202703 | 12 | 142 | 6.4 | 16.1 | 0.00 | 0.00 | 0.00 | 86 | 1014.2 |
| 20260507201803 | 12 | 161 | 6.4 | 11.3 | 0.00 | 0.00 | 0.00 | 86 | 1014.1 |
| 20260507200924 | 12 | 154 | 6.4 | 12.9 | 0.00 | 0.00 | 0.00 | 86 | 1013.9 |
| 20260507200003 | 12 | 145 | 8.0 | 14.5 | 0.00 | 0.00 | 0.00 | 86 | 1013.9 |
| 20260507195403 | 12 | 146 | 6.4 | 14.5 | 0.00 | 0.00 | 0.00 | 86 | 1013.8 |
| 20260507194503 | 12 | 140 | 4.8 | 11.3 | 0.00 | 0.00 | 0.00 | 86 | 1013.7 |
| 20260507193603 | 12 | 132 | 6.4 | 12.9 | 0.00 | 0.00 | 0.00 | 86 | 1013.5 |
| 20260507192703 | 12 | 152 | 4.8 | 11.3 | 0.00 | 0.00 | 0.00 | 86 | 1013.6 |
| 20260507191803 | 12 | 133 | 6.4 | 16.1 | 0.00 | 0.00 | 0.00 | 86 | 1013.6 |
| 20260507190903 | 12 | 128 | 6.4 | 12.9 | 0.00 | 0.00 | 0.00 | 85 | 1013.6 |
| 20260507190024 | 12 | 108 | 4.8 | 11.3 | 0.00 | 0.00 | 0.00 | 86 | 1013.6 |
| 20260507185403 | 12 | 92 | 4.8 | 14.5 | 0.00 | 0.00 | 0.00 | 87 | 1013.5 |
| 20260507184503 | 12 | 92 | 4.8 | 12.9 | 0.00 | 0.00 | 0.00 | 86 | 1013.5 |
| 20260507183603 | 12 | 89 | 6.4 | 12.9 | 0.00 | 0.00 | 0.00 | 86 | 1013.5 |
| 20260507182703 | 12 | 106 | 4.8 | 12.9 | 0.00 | 0.00 | 0.00 | 86 | 1013.6 |
| 20260507181803 | 13 | 87 | 3.2 | 9.7 | 0.00 | 0.00 | 0.00 | 80 | 1013.5 |
| 20260507180903 | 12 | 132 | 3.2 | 11.3 | 0.00 | 0.00 | 0.00 | 86 | 1013.4 |
| 20260507180003 | 12 | 173 | 3.2 | 8.0 | 0.00 | 0.00 | 0.00 | 87 | 1013.3 |
| 20260507175403 | 12 | 175 | 3.2 | 8.0 | 0.00 | 0.00 | 0.00 | 87 | 1013.4 |
| 20260507174503 | 12 | 147 | 3.2 | 11.3 | 0.00 | 0.00 | 0.00 | 87 | 1013.4 |
| 20260507173603 | 13 | 163 | 6.4 | 11.3 | 0.00 | 0.00 | 0.00 | 88 | 1013.4 |
| 20260507172703 | 13 | 175 | 6.4 | 14.5 | 0.00 | 0.00 | 0.00 | 87 | 1013.4 |
| 20260507171803 | 13 | 176 | 6.4 | 20.9 | 0.00 | 0.00 | 0.00 | 85 | 1013.4 |
| 20260507170903 | 13 | 159 | 8.0 | 14.5 | 0.00 | 0.00 | 0.00 | 90 | 1013.4 |
| 20260507170003 | 14 | 136 | 8.0 | 19.3 | 0.00 | 0.00 | 0.00 | 89 | 1013.4 |
| 20260507165403 | 14 | 124 | 8.0 | 19.3 | 0.00 | 0.00 | 0.00 | 88 | 1013.4 |
| 20260507164503 | 14 | 120 | 9.7 | 20.9 | 0.00 | 0.00 | 0.00 | 88 | 1013.4 |
| 20260507163603 | 14 | 124 | 11.3 | 20.9 | 0.00 | 0.00 | 0.00 | 88 | 1013.3 |
| 20260507162703 | 14 | 97 | 4.8 | 16.1 | 0.00 | 0.00 | 0.00 | 89 | 1013.3 |
| 20260507161803 | 14 | 98 | 6.4 | 17.7 | 0.00 | 0.00 | 0.00 | 89 | 1013.3 |
| 20260507160903 | 14 | 92 | 6.4 | 14.5 | 0.00 | 0.00 | 0.00 | 86 | 1013.3 |
| 20260507160003 | 14 | 94 | 4.8 | 12.9 | 0.00 | 0.00 | 0.00 | 89 | 1013.4 |
| 20260507155403 | 14 | 94 | 4.8 | 14.5 | 0.00 | 0.00 | 0.00 | 89 | 1013.4 |
| 20260507154503 | 14 | 103 | 8.0 | 16.1 | 0.00 | 0.00 | 0.00 | 89 | 1013.5 |
| 20260507153603 | 14 | 121 | 4.8 | 12.9 | 0.00 | 0.00 | 0.00 | 90 | 1013.4 |
| 20260507152703 | 14 | 99 | 4.8 | 16.1 | 0.00 | 0.00 | 0.00 | 87 | 1013.4 |
| 20260507151803 | 15 | 94 | 8.0 | 17.7 | 0.00 | 0.00 | 0.00 | 83 | 1013.5 |
| 20260507150903 | 15 | 120 | 6.4 | 12.9 | 0.00 | 0.00 | 0.00 | 82 | 1013.6 |
| 20260507150003 | 15 | 136 | 6.4 | 12.9 | 0.00 | 0.00 | 0.00 | 83 | 1013.7 |
| 20260507145403 | 15 | 121 | 6.4 | 12.9 | 0.00 | 0.00 | 0.00 | 83 | 1013.8 |
| 20260507144503 | 15 | 87 | 6.4 | 17.7 | 0.00 | 0.00 | 0.00 | 82 | 1013.8 |
| 20260507143624 | 15 | 99 | 8.0 | 17.7 | 0.00 | 0.00 | 0.00 | 82 | 1013.9 |
| 20260507142703 | 14 | 107 | 8.0 | 20.9 | 0.00 | 0.00 | 0.00 | 82 | 1014.0 |
| 20260507141803 | 15 | 92 | 8.0 | 20.9 | 0.00 | 0.00 | 0.00 | 81 | 1014.0 |
| 20260507140903 | 15 | 103 | 8.0 | 16.1 | 0.00 | 0.00 | 0.00 | 80 | 1014.1 |
| 20260507140024 | 14 | 99 | 8.0 | 16.1 | 0.00 | 0.00 | 0.00 | 80 | 1014.2 |
| 20260507135403 | 13 | 96 | 8.0 | 19.3 | 0.00 | 0.00 | 0.00 | 80 | 1014.2 |
| 20260507134503 | 13 | 103 | 9.7 | 20.9 | 0.00 | 0.00 | 0.00 | 80 | 1014.3 |
| 20260507133603 | 13 | 102 | 8.0 | 22.5 | 0.00 | 0.00 | 0.00 | 79 | 1014.3 |
| 20260507132724 | 13 | 102 | 8.0 | 20.9 | 0.00 | 0.00 | 0.00 | 80 | 1014.4 |
| 20260507131803 | 13 | 103 | 9.7 | 20.9 | 0.00 | 0.00 | 0.00 | 80 | 1014.5 |
| 20260507130903 | 13 | 109 | 11.3 | 22.5 | 0.00 | 0.00 | 0.00 | 80 | 1014.4 |
| 20260507130003 | 12 | 104 | 8.0 | 20.9 | 0.00 | 0.00 | 0.00 | 80 | 1014.4 |
| 20260507125403 | 12 | 100 | 11.3 | 22.5 | 0.00 | 0.00 | 0.00 | 80 | 1014.5 |
| 20260507124503 | 12 | 104 | 11.3 | 22.5 | 0.00 | 0.00 | 0.00 | 80 | 1014.5 |
| 20260507123603 | 11 | 100 | 9.7 | 20.9 | 0.00 | 0.00 | 0.00 | 80 | 1014.6 |
| 20260507122705 | 11 | 97 | 8.0 | 17.7 | 0.00 | 0.00 | 0.00 | 80 | 1014.6 |
| 20260507121803 | 11 | 93 | 8.0 | 20.9 | 0.00 | 0.00 | 0.00 | 80 | 1014.5 |
| 20260507120903 | 12 | 98 | 9.7 | 20.9 | 0.00 | 0.00 | 0.00 | 78 | 1014.5 |
| 20260507120004 | 11 | 89 | 9.7 | 20.9 | 0.00 | 0.00 | 0.00 | 80 | 1014.7 |
| 20260507115424 | 10 | 94 | 8.0 | 19.3 | 0.00 | 0.00 | 0.00 | 80 | 1014.7 |
| 20260507114503 | 10 | 88 | 8.0 | 20.9 | 0.00 | 0.00 | 0.00 | 81 | 1014.7 |
| 20260507113603 | 10 | 102 | 8.0 | 19.3 | 0.00 | 0.00 | 0.00 | 80 | 1014.6 |
| 20260507112703 | 10 | 102 | 9.7 | 20.9 | 0.00 | 0.00 | 0.00 | 80 | 1014.7 |
| 20260507111803 | 10 | 104 | 9.7 | 22.5 | 0.00 | 0.00 | 0.00 | 80 | 1014.7 |
| 20260507110924 | 10 | 101 | 9.7 | 20.9 | 0.00 | 0.00 | 0.00 | 79 | 1014.8 |
| 20260507110024 | 10 | 101 | 11.3 | 22.5 | 0.00 | 0.00 | 0.00 | 80 | 1014.8 |
| 20260507105403 | 10 | 97 | 11.3 | 24.1 | 0.00 | 0.00 | 0.00 | 80 | 1014.8 |
| 20260507104504 | 10 | 96 | 9.7 | 19.3 | 0.00 | 0.00 | 0.00 | 80 | 1014.9 |
| 20260507103603 | 11 | 86 | 8.0 | 24.1 | 0.00 | 0.00 | 0.00 | 80 | 1014.8 |
| 20260507102703 | 11 | 94 | 11.3 | 25.7 | 0.00 | 0.00 | 0.00 | 80 | 1014.8 |
| 20260507101824 | 11 | 82 | 9.7 | 20.9 | 0.00 | 0.00 | 0.00 | 80 | 1014.8 |
| 20260507100924 | 10 | 84 | 8.0 | 17.7 | 0.00 | 0.00 | 0.00 | 80 | 1014.9 |
| 20260507100003 | 10 | 87 | 8.0 | 16.1 | 0.00 | 0.00 | 0.00 | 80 | 1014.9 |
| 20260507095424 | 10 | 92 | 8.0 | 20.9 | 0.00 | 0.00 | 0.00 | 80 | 1014.9 |
| 20260507094503 | 10 | 92 | 8.0 | 20.9 | 0.00 | 0.00 | 0.00 | 80 | 1014.9 |
| 20260507093624 | 10 | 83 | 9.7 | 20.9 | 0.00 | 0.00 | 0.00 | 80 | 1014.9 |
| 20260507092703 | 10 | 90 | 9.7 | 19.3 | 0.00 | 0.00 | 0.00 | 80 | 1014.9 |
| 20260507091803 | 10 | 87 | 8.0 | 17.7 | 0.00 | 0.00 | 0.00 | 80 | 1015.0 |
| 20260507090903 | 10 | 87 | 9.7 | 19.3 | 0.00 | 0.00 | 0.00 | 80 | 1014.9 |
| 20260507090024 | 10 | 85 | 9.7 | 22.5 | 0.00 | 0.00 | 0.00 | 80 | 1014.9 |
| 20260507085424 | 10 | 101 | 11.3 | 24.1 | 0.00 | 0.00 | 0.00 | 80 | 1014.8 |
| 20260507084503 | 10 | 97 | 9.7 | 22.5 | 0.00 | 0.00 | 0.00 | 80 | 1014.9 |
| 20260507083603 | 10 | 89 | 9.7 | 24.1 | 0.00 | 0.00 | 0.00 | 80 | 1014.8 |
| 20260507082703 | 10 | 88 | 9.7 | 22.5 | 0.00 | 0.00 | 0.00 | 80 | 1014.8 |
| 20260507081803 | 10 | 92 | 11.3 | 27.4 | 0.00 | 0.00 | 0.00 | 80 | 1014.8 |
| 20260507080903 | 10 | 100 | 11.3 | 22.5 | 0.00 | 0.00 | 0.00 | 80 | 1014.9 |
| 20260507080003 | 9 | 101 | 11.3 | 22.5 | 0.00 | 0.00 | 0.00 | 80 | 1014.9 |
| 20260507075424 | 9 | 85 | 11.3 | 29.0 | 0.00 | 0.00 | 0.00 | 81 | 1014.8 |
| 20260507074503 | 9 | 91 | 11.3 | 20.9 | 0.00 | 0.00 | 0.00 | 80 | 1014.8 |
| 20260507073603 | 9 | 97 | 11.3 | 22.5 | 0.00 | 0.00 | 0.00 | 80 | 1014.7 |
| 20260507072703 | 8 | 96 | 11.3 | 24.1 | 0.00 | 0.00 | 0.00 | 81 | 1014.7 |
| 20260507071803 | 8 | 98 | 9.7 | 22.5 | 0.00 | 0.00 | 0.00 | 81 | 1014.7 |
| 20260507070924 | 8 | 93 | 9.7 | 22.5 | 0.00 | 0.00 | 0.00 | 79 | 1014.6 |
| 20260507070005 | 8 | 87 | 8.0 | 17.7 | 0.00 | 0.00 | 0.00 | 81 | 1014.5 |
| 20260507065403 | 8 | 101 | 8.0 | 19.3 | 0.00 | 0.00 | 0.00 | 81 | 1014.7 |
| 20260507064503 | 8 | 91 | 8.0 | 22.5 | 0.00 | 0.00 | 0.00 | 81 | 1014.6 |
| 20260507063603 | 7 | 80 | 8.0 | 19.3 | 0.00 | 0.00 | 0.00 | 82 | 1014.7 |
| 20260507062703 | 7 | 95 | 9.7 | 19.3 | 0.00 | 0.00 | 0.00 | 82 | 1014.7 |
| 20260507061803 | 7 | 89 | 8.0 | 20.9 | 0.00 | 0.00 | 0.00 | 82 | 1014.7 |
| 20260507060924 | 7 | 94 | 8.0 | 20.9 | 0.00 | 0.00 | 0.00 | 81 | 1014.7 |
| 20260507060003 | 7 | 83 | 8.0 | 19.3 | 0.00 | 0.00 | 0.00 | 82 | 1014.7 |
| 20260507055424 | 7 | 78 | 8.0 | 16.1 | 0.00 | 0.00 | 0.00 | 83 | 1014.5 |
| 20260507054503 | 7 | 86 | 9.7 | 20.9 | 0.00 | 0.00 | 0.00 | 83 | 1014.6 |
| 20260507053603 | 7 | 91 | 8.0 | 17.7 | 0.00 | 0.00 | 0.00 | 83 | 1014.5 |
| 20260507052703 | 7 | 88 | 8.0 | 17.7 | 0.00 | 0.00 | 0.00 | 84 | 1014.4 |
| 20260507051803 | 7 | 80 | 8.0 | 16.1 | 0.00 | 0.00 | 0.00 | 80 | 1014.4 |
| 20260507050903 | 7 | 86 | 8.0 | 20.9 | 0.00 | 0.00 | 0.00 | 84 | 1014.4 |
| 20260507050024 | 7 | 85 | 9.7 | 19.3 | 0.00 | 0.00 | 0.00 | 84 | 1014.3 |
| 20260507045403 | 7 | 81 | 8.0 | 19.3 | 0.00 | 0.00 | 0.00 | 84 | 1014.4 |
| 20260507044503 | 7 | 83 | 8.0 | 19.3 | 0.00 | 0.00 | 0.00 | 85 | 1014.5 |
| 20260507043603 | 7 | 83 | 9.7 | 22.5 | 0.00 | 0.00 | 0.00 | 85 | 1014.4 |
| 20260507042703 | 7 | 81 | 8.0 | 20.9 | 0.00 | 0.00 | 0.00 | 85 | 1014.5 |
| 20260507041803 | 7 | 92 | 11.3 | 24.1 | 0.00 | 0.00 | 0.00 | 85 | 1014.5 |
| 20260507040903 | 7 | 88 | 9.7 | 19.3 | 0.00 | 0.00 | 0.00 | 85 | 1014.5 |
| 20260507040003 | 7 | 80 | 8.0 | 24.1 | 0.00 | 0.00 | 0.00 | 84 | 1014.5 |
| 20260507035403 | 7 | 86 | 9.7 | 22.5 | 0.00 | 0.00 | 0.00 | 85 | 1014.7 |
| 20260507034503 | 7 | 79 | 8.0 | 20.9 | 0.00 | 0.00 | 0.00 | 85 | 1014.5 |
| 20260507033603 | 7 | 86 | 8.0 | 19.3 | 0.00 | 0.00 | 0.00 | 85 | 1014.5 |
| 20260507032703 | 7 | 89 | 8.0 | 20.9 | 0.00 | 0.00 | 0.00 | 85 | 1014.6 |
| 20260507031803 | 7 | 87 | 9.7 | 20.9 | 0.00 | 0.00 | 0.00 | 86 | 1014.6 |
| 20260507030903 | 7 | 74 | 6.4 | 19.3 | 0.00 | 0.00 | 0.00 | 83 | 1014.5 |
| 20260507030003 | 7 | 75 | 6.4 | 19.3 | 0.00 | 0.00 | 0.00 | 85 | 1014.6 |
| 20260507025403 | 7 | 74 | 6.4 | 19.3 | 0.00 | 0.00 | 0.00 | 85 | 1014.7 |
| 20260507024503 | 7 | 79 | 6.4 | 19.3 | 0.00 | 0.00 | 0.00 | 85 | 1014.7 |
| 20260507023603 | 7 | 82 | 6.4 | 17.7 | 0.00 | 0.00 | 0.00 | 85 | 1014.8 |
| 20260507022703 | 7 | 81 | 6.4 | 17.7 | 0.00 | 0.00 | 0.00 | 85 | 1014.9 |
| 20260507021803 | 7 | 75 | 6.4 | 14.5 | 0.00 | 0.00 | 0.00 | 82 | 1015.0 |
| 20260507020924 | 7 | 82 | 8.0 | 17.7 | 0.00 | 0.00 | 0.00 | 85 | 1014.8 |
| 20260507020003 | 7 | 81 | 8.0 | 19.3 | 0.00 | 0.00 | 0.00 | 85 | 1014.8 |
| 20260507015424 | 7 | 80 | 9.7 | 19.3 | 0.00 | 0.00 | 0.00 | 86 | 1014.9 |
| 20260507014503 | 7 | 87 | 9.7 | 22.5 | 0.00 | 0.00 | 0.00 | 86 | 1014.8 |
| 20260507013603 | 7 | 84 | 9.7 | 20.9 | 0.00 | 0.00 | 0.00 | 86 | 1014.9 |
| 20260507012703 | 7 | 72 | 6.4 | 17.7 | 0.00 | 0.00 | 0.00 | 86 | 1014.7 |
| 20260507011824 | 7 | 82 | 8.0 | 22.5 | 0.00 | 0.00 | 0.00 | 82 | 1014.8 |
| 20260507010903 | 7 | 84 | 8.0 | 19.3 | 0.00 | 0.00 | 0.00 | 85 | 1014.8 |
| 20260507010003 | 7 | 77 | 8.0 | 19.3 | 0.00 | 0.00 | 0.00 | 86 | 1014.7 |
| 20260507005403 | 7 | 74 | 8.0 | 17.7 | 0.00 | 0.00 | 0.00 | 86 | 1014.8 |
| 20260507004524 | 7 | 71 | 8.0 | 20.9 | 0.00 | 0.00 | 0.00 | 86 | 1014.8 |
| 20260507003603 | 7 | 65 | 6.4 | 14.5 | 0.00 | 0.00 | 0.00 | 86 | 1014.9 |
| 20260507002703 | 7 | 63 | 6.4 | 16.1 | 0.00 | 0.00 | 0.00 | 87 | 1014.9 |
| 20260507001803 | 8 | 72 | 6.4 | 16.1 | 0.00 | 0.00 | 0.00 | 87 | 1014.9 |
| 20260507000903 | 8 | 56 | 6.4 | 16.1 | 0.00 | 0.00 | 0.00 | 87 | 1014.9 |
| 20260507000003 | 7 | 59 | 6.4 | 17.7 | 0.00 | 0.00 | 0.00 | 86 | 1015.0 |
| 20260506235403 | 7 | 62 | 6.4 | 19.3 | 0.00 | 0.00 | 0.00 | 87 | 1015.0 |
| 20260506234503 | 7 | 54 | 8.0 | 19.3 | 0.00 | 0.00 | 0.00 | 87 | 1014.9 |
| 20260506233603 | 7 | 54 | 6.4 | 19.3 | 0.00 | 0.00 | 0.00 | 87 | 1014.9 |
| 20260506232724 | 8 | 55 | 8.0 | 22.5 | 0.00 | 0.00 | 0.00 | 87 | 1014.9 |
| 20260506231803 | 8 | 58 | 8.0 | 20.9 | 0.00 | 0.00 | 0.00 | 87 | 1014.9 |
| 20260506230903 | 8 | 58 | 6.4 | 17.7 | 0.00 | 0.00 | 0.00 | 85 | 1014.9 |
| 20260506230004 | 8 | 52 | 6.4 | 17.7 | 0.00 | 0.00 | 0.00 | 87 | 1015.1 |
| 20260506225403 | 8 | 54 | 6.4 | 17.7 | 0.00 | 0.00 | 0.00 | 88 | 1015.0 |
| 20260506224503 | 8 | 50 | 6.4 | 12.9 | 0.00 | 0.00 | 0.00 | 88 | 1015.0 |
| 20260506223603 | 8 | 43 | 4.8 | 14.5 | 0.00 | 0.00 | 0.00 | 88 | 1015.0 |
| 20260506222703 | 8 | 48 | 4.8 | 16.1 | 0.00 | 0.00 | 0.00 | 88 | 1015.1 |
| 20260506221803 | 8 | 46 | 6.4 | 17.7 | 0.00 | 0.00 | 0.00 | 88 | 1014.9 |
| 20260506220903 | 8 | 48 | 6.4 | 16.1 | 0.00 | 0.03 | 0.00 | 87 | 1014.9 |
| 20260506220003 | 8 | 52 | 4.8 | 14.5 | 0.00 | 0.03 | 0.00 | 89 | 1014.9 |
| 20260506215403 | 8 | 55 | 4.8 | 14.5 | 0.00 | 0.03 | 0.00 | 90 | 1014.8 |
| 20260506214503 | 8 | 49 | 4.8 | 14.5 | 0.00 | 0.03 | 0.00 | 90 | 1014.8 |
| 20260506213603 | 9 | 48 | 4.8 | 14.5 | 0.00 | 0.03 | 0.00 | 90 | 1014.7 |
| 20260506212703 | 9 | 49 | 4.8 | 14.5 | 0.00 | 0.03 | 0.00 | 90 | 1014.7 |
| 20260506211824 | 10 | 45 | 4.8 | 11.3 | 0.00 | 0.03 | 0.00 | 83 | 1014.7 |